Location: Gwatt
(46.7204°N, 7.6223°E)
Time: 06:29:57
(UTC+00:00)

Explorer 7 - Visible Passes

Search period start: 28 January 2021 00:00
Search period end: 07 February 2021 00:00
Orbit: 484 x 678 km, 50.3° (Epoch: 27 January)

Date Brightness Start Highest point End Pass type
(mag) Time Alt. Az. Time Alt. Az. Time Alt. Az.
28 Jan 7.0 04:52:34 52° N 04:52:34 52° N 04:56:32 10° ENE visible
29 Jan 7.1 04:56:56 47° NNW 04:57:14 49° N 05:01:11 10° ENE visible
30 Jan 10.1 03:24:59 10° ENE 03:24:59 10° ENE 03:25:01 10° ENE visible
30 Jan 7.1 05:01:16 44° NNW 05:01:55 49° N 05:05:52 10° E visible
31 Jan 9.9 03:29:19 12° ENE 03:29:19 12° ENE 03:29:37 10° ENE visible
31 Jan 7.1 05:05:36 41° NW 05:06:34 54° N 05:10:34 10° E visible
01 Feb 9.8 03:33:40 14° ENE 03:33:40 14° ENE 03:34:15 10° ENE visible
01 Feb 6.9 05:09:57 39° NW 05:11:13 64° NNE 05:15:16 10° E visible
02 Feb 9.6 03:38:02 16° ENE 03:38:02 16° ENE 03:38:54 10° ENE visible
02 Feb 6.7 05:14:20 36° WNW 05:15:49 80° NNE 05:19:54 10° ESE visible
03 Feb 9.4 03:42:26 18° ENE 03:42:26 18° ENE 03:43:35 10° E visible
03 Feb 6.6 05:18:43 33° WNW 05:20:23 78° SSW 05:24:27 10° ESE visible
04 Feb 9.2 03:46:52 20° E 03:46:52 20° E 03:48:17 10° E visible
04 Feb 6.9 05:23:10 29° W 05:24:53 54° SSW 05:28:53 10° SE visible
05 Feb 9.0 03:51:22 23° E 03:51:22 23° E 03:52:57 10° E visible
05 Feb 7.5 05:27:40 24° W 05:29:22 37° SW 05:33:07 10° SSE visible
06 Feb 8.9 03:55:55 23° ESE 03:55:55 23° ESE 03:57:34 10° ESE visible
06 Feb 8.0 05:32:13 19° WSW 05:33:47 25° SW 05:37:06 10° SSE visible
